Regional Weather Roundup
Issued by NWS

Home | Current Version | Previous Version | Text Only | Print | Product List | Glossary Off
Versions: 1 2 3 4 5 6 7 8 9 10 11 12 13 14 15 16 17 18 19 20 21 22 23 24 25 26 27 28 29 30 31 32 33 34 35 36 37 38 39 40 41 42 43 44 45 46 47 48 49 50

000
ASUS43 KOAX 310510
RWRNE

WEATHER ROUNDUP FOR NEBRASKA
NATIONAL WEATHER SERVICE OMAHA NE
1200 AM CDT TUE MAY 31 2016

NOTES: SATELLITE DATA IS BEING USED TO AUGMENT CLOUD COVER ABOVE
       12000 FEET.
       "FAIR" INDICATES FEW OR NO CLOUDS BELOW 12,000 FEET WITH NO
       SIGNIFICANT WEATHER AND/OR OBSTRUCTIONS TO VISIBILITY.

  * THESE STATIONS DO NOT REPORT WEATHER SUCH AS RAIN...SNOW OR FOG.

NEZ001>004-019>022-054>056-310600-
NEBRASKA PANHANDLE

CITY           SKY/WX    TMP DP  RH WIND       PRES   REMARKS
SCOTTSBLUFF    CLOUDY    55  46  71 NW6       30.10R
ALLIANCE       LGT RAIN  53  49  86 NE12      30.06R
CHADRON        MOCLDY    52  48  86 SE5       30.09R
KIMBALL        CLOUDY    55  46  73 N15       30.10R
SIDNEY         LGT RAIN  56  48  74 N23G31    30.05R
$$

NEZ057>060-069>072-079>082-310600-
SOUTHWEST NEBRASKA

CITY           SKY/WX    TMP DP  RH WIND       PRES   REMARKS
NORTH PLATTE   CLOUDY    58  53  84 CALM      29.96R
IMPERIAL       CLOUDY    57  53  86 CALM      29.97R
LEXINGTON      CLOUDY    59  54  82 E5        29.89F
MCCOOK         CLOUDY    60  54  80 SW3       29.93R
OGALLALA       PTCLDY    59  52  77 N14       29.98R
$$

NEZ005>010-023>029-035>040-094-310600-
NORTH CENTRAL NEBRASKA

CITY           SKY/WX    TMP DP  RH WIND       PRES   REMARKS
VALENTINE      CLOUDY    58  52  80 NW7       29.98R
AINSWORTH      CLOUDY    60  54  82 W7        29.97S
BROKEN BOW     LGT RAIN  62  53  72 E10       29.86F
O`NEILL        RAIN      61  58  91 W17G23    29.89F
ORD            LGT RAIN  63  55  75 CALM      29.90F
THEDFORD       CLOUDY    61  55  81 N7        29.99R
$$

NEZ041-046>049-061>064-073>077-083>087-310600-
SOUTH CENTRAL NEBRASKA

CITY           SKY/WX    TMP DP  RH WIND       PRES   REMARKS
GRAND ISLAND   LGT RAIN  61  58  90 NW14      29.92F
AURORA         CLOUDY    62  59  89 NW26G35   29.94R
HASTINGS       RAIN      62  58  86 NW13      29.93F
HEBRON         MOCLDY    70  60  70 S13       29.90F
HOLDREGE       RAIN      60  55  84 E8        29.90F
KEARNEY *      CLOUDY    63  54  72 W8        29.91F
YORK           CLOUDY    72  59  64 S17       29.89S
$$

NEZ011>018-030>034-042>045-310600-
NORTHEAST NEBRASKA

CITY           SKY/WX    TMP DP  RH WIND       PRES   REMARKS
NORFOLK        CLOUDY    73  58  59 S10       29.83F
ALBION         HVY RAIN  63  54  72 W16G30    29.89R
BLAIR          CLOUDY    68  61  77 S14       29.90F
FREMONT        CLOUDY    69  62  78 SE17G24   29.89S
TEKAMAH        CLOUDY    67  61  81 S13       29.87F
WAYNE          CLOUDY    68  61  76 S15       29.84F
$$

NEZ050>053-065>068-078-088>093-310600-
SOUTHEAST NEBRASKA

CITY           SKY/WX    TMP DP  RH WIND       PRES   REMARKS
LINCOLN        CLOUDY    72  61  68 S13       29.90S
OMAHA EPPLEY   CLOUDY    68  62  81 S14       29.90F
BEATRICE       CLOUDY    70  60  72 S12       29.92S
FALLS CITY     CLEAR     66  62  87 SE6       29.93F
NEBRASKA CITY  CLOUDY    66  65  99 S8        29.93F
PLATTSMOUTH    CLOUDY    67  64  92 S8        29.91F
$$

NEZ044-045-051>053-067-310600-
OMAHA AREA

CITY           SKY/WX    TMP DP  RH WIND       PRES   REMARKS
OMAHA EPPLEY   CLOUDY    68  62  81 S14       29.90F
BLAIR          CLOUDY    68  61  77 S14       29.90F
FREMONT        CLOUDY    69  62  78 SE17G24   29.89S
MILLARD        CLOUDY    68  62  78 SE7       29.90F
PLATTSMOUTH    CLOUDY    67  64  92 S8        29.91F
WAHOO          FAIR      69  63  81 SE16      29.89F
$$




USA.gov is the U.S. government's official web portal to all federal, state and local government web resources and services.